Regional Weather Roundup
Issued by NWS Jackson, KY

Home | Current Version | Previous Version | Graphics & Text | Print | Product List | Glossary On
Versions: 1 2 3 4 5 6 7 8 9 10 11 12 13 14 15 16 17 18 19 20 21 22 23 24 25 26 27 28 29 30 31 32 33 34 35 36 37 38 39 40 41 42 43 44 45 46 47 48 49 50
000
ASUS43 KJKL 300110
RWRJKL

EAST KENTUCKY HOURLY WEATHER ROUNDUP
NATIONAL WEATHER SERVICE JACKSON KY
900 PM EDT WED MAR 29 2017

NOTE: "FAIR" INDICATES FEW OR NO CLOUDS BELOW 12,000 FEET WITH
NO SIGNIFICANT WEATHER AND/OR OBSTRUCTIONS TO VISIBILITY.

* THESE REPORTS ARE NOT UNDER NWS QUALITY CONTROL AND MAY NOT
  REPORT WEATHER SUCH AS PRECIPITATION AND FOG.

KYZ079-080-083-085-087-088-110-112-115-119-120-300200
...EASTERN KENTUCKY...

CITY           SKY/WX    TMP DP  RH WIND       PRES   REMARKS
JACKSON        CLEAR     58  47  66 VRB6      30.05S
LONDON         CLEAR     64  48  56 NE6       30.00S
SOMERSET*      CLEAR     64  50  59 E6        29.99S
MONTICELLO*    CLEAR     65  54  67 NW7       29.99S
WILLIAMSBURG*  CLEAR     64  52  63 NE6       29.99S
MIDDLESBORO*   CLEAR     64  52  67 CALM      30.00S
HARLAN APT*    CLEAR     66  48  52 CALM      30.03R
PIKE CO APT*   CLOUDY    57  47  69 NE9       30.06S
BIG SANDY APT* CLEAR     55  47  72 NE7       30.07S
MOREHEAD APT*  CLEAR     54  43  66 E8        30.09S
ASHLAND*       CLEAR     52  45  76 CALM      30.08F
$$

KYZ035-036-041-042-044-050-067-078-099-300200
...CENTRAL KENTUCKY...

CITY           SKY/WX    TMP DP  RH WIND       PRES   REMARKS
MT STERLING*   CLEAR     55  46  71 E12       30.06S
FLEMING/MASON* CLEAR     51  44  75 E9        30.09S
DANVILLE*      PTCLDY    57  50  77 NE7       30.02S
LEXINGTON      CLEAR     58  48  69 NE10      30.04R
FRANKFORT      CLEAR     60  48  64 NE6       30.02R
LOUISVILLE     MOCLDY    62  48  60 E9        29.99F
LEBANON*         N/A     61  52  72 NE6       29.99F
GLASGOW*       PTCLDY    66  54  64 NE7       29.92F
BOWLING GREEN  PTCLDY    67  56  67 NE8       29.91S
$$

KYZ091>093-OHZ055-061-077-WVZ005-015-034-035-042-300200
...SOUTHERN OHIO/WEST VIRGINIA...

CITY           SKY/WX    TMP DP  RH WIND       PRES   REMARKS
COVINGTON      PTCLDY    54  44  69 E9        30.08R
COLUMBUS       MOCLDY    54  36  50 NE13      30.10F
DAYTON         CLOUDY    54  40  59 NE10      30.11R
WILMINGTON     PTCLDY    52  42  69 NE5       30.09R
HUNTINGTON     CLEAR     53  44  71 NE6       30.09F
CHARLESTON     CLEAR     55  44  66 NE5       30.10S
PINEVILLE*     CLEAR     56  47  74 MISG      30.13R
BECKLEY        CLEAR     53  44  71 CALM      30.11S
BLUEFIELD      CLEAR     57  44  62 E6        30.11R
LOGAN CO APT*    N/A     55  46  71 NE7       30.09R
$$

VAZ002-007-008-TNZ017-027-036-066-071-300200
...SOUTHWEST VIRGINIA/EAST TENNESSEE...

CITY           SKY/WX    TMP DP  RH WIND       PRES   REMARKS
WISE*          CLEAR     59  46  63 CALM      30.09S
JONESVILLE*      N/A     63  50  63 CALM      30.03S
ABINGDON*      CLEAR     63  49  60 CALM      30.06S
BRISTOL        CLEAR     65  48  54 CALM      30.03S
MORRISTOWN*    CLEAR     68  50  52 CALM      30.00S
SEVIERVILLE*   CLEAR     64  46  52 CALM      29.98F
KNOXVILLE      CLEAR     70  50  49 E5        29.96F
LAFOLLETTE*    CLEAR     64  52  63 NE5       30.01S
OAK RIDGE      CLEAR     70  51  51 CALM      29.98F
CROSSVILLE     CLEAR     68  52  56 SE3       30.00S
NASHVILLE      MOCLDY    75  58  55 SE7       29.88F
$$

...KEY TO REMARKS...
VSB - VISIBILITY IN MILES
WCI - WIND CHILL INDEX
HX  - HEAT INDEX

$$



USA.gov is the U.S. government's official web portal to all federal, state and local government web resources and services.